Weather in Verkh-Katunskoye

Russia / Altai Krai     52°27′01″N   85°26′03″E
temp.,
°C
wind,
m/s
gust,
m/s
humid.,
%
clouds,
%
prec.,
mm/h
press.,
hPa
HPBL,
m
19 may, wed
wed1901:00+15wnw3384100 1.5 100542
04:00+14wsw51288100 1.5 1004447
07:00+14sw469399 3.0 1004181
10:00+18w5875100 1.3 1004831
13:00+17nw4680100 4.3 1003625
16:00+12n71089100 2.6 1005642
19:00+10nnw3692100 3.7 1007471
22:00+11wsw2383100 1.0 100851
20 may, thu
thu2001:00+8n4783100 1.4 1008166
04:00+7n51077100 0.2 1009609
07:00+5n4884100 4.5 1011896
10:00+8nnw57535 0.3 10132066
13:00+10nw4738100 0.4 10132731
16:00+7wnw5672100 0.6 1015850
19:00+7nnw3671100 3.3 1016857
22:00+4n41078100 0.9 1018337
21 may, fri
fri2101:00+1nw338879 1.3 102068
04:00+1nnw2289100 0.5 102245
07:00+2wnw238014 0.5 1024195
10:00+6w236614 0.0 10251074
13:00+8nw335687 0.4 10251572
16:00+11nne224493 0.1 10252127
19:00+11ene12457 0.1 10261715
22:00+6s22635 0.0 102814
22 may, sat
sat2201:00+4s116898 0.0 102910
04:00+3se227376 0.0 103014
07:00+4ese237716 0.0 1030115
10:00+10ese346259 0.0 1030595
13:00+13ese335368 0.0 10291219
16:00+14e1248100 0.0 10271345
19:00+14nne115134 0.0 10271301
22:00+9ene12625 0.0 102810
23 may, sun
sun2301:00+7se22706 0.0 102812
04:00+6ese227521 0.0 102813
07:00+8ese23785 0.0 1029103
10:00+13ese33645 0.0 1028496
13:00+17e335117 0.0 1027988
16:00+19e23465 0.0 10251061
19:00+19ene23596 0.0 1024366
22:00+13ene33734 0.0 102333